BTK7557 WIBB-WIHH

Flight info

Callsign BTK7557
Flight time 1h 46m
Altitude 37000
Route JATAM A585 PLB G461 BIDAK
Aircraft A320/M-SDE3FGHIRWY/LB1

Departure

Time 2026-04-29 01:58
Airport Sultan Syarif Kasim II International Airport / Roesmin Nurjadin AFB (WIBB)

Arrival

Time 2026-04-29 03:45
Airport Halim Perdanakusuma International Airport (WIHH)
Time Latitude Longitude Altitude Speed Heading
2026-04-29 01:36 0.46387 101.44690 0 ft 0 kts 89°
2026-04-29 01:49 0.46387 101.44689 0 ft 2 kts 89°
2026-04-29 01:49 0.46387 101.44669 141 ft 3 kts 91°
2026-04-29 01:50 0.46387 101.44653 102 ft 2 kts 90°
2026-04-29 01:50 0.46387 101.44644 141 ft 1 kts 90°
2026-04-29 01:50 0.46387 101.44637 140 ft 0 kts 90°
2026-04-29 01:51 0.46387 101.44627 141 ft 3 kts 93°
2026-04-29 01:51 0.46388 101.44609 140 ft 2 kts 104°
2026-04-29 01:51 0.46391 101.44598 140 ft 1 kts 129°
2026-04-29 01:51 0.46397 101.44592 140 ft 1 kts 159°
2026-04-29 01:52 0.46405 101.44589 140 ft 1 kts 173°
2026-04-29 01:52 0.46413 101.44588 140 ft 1 kts 179°
2026-04-29 01:52 0.46421 101.44588 140 ft 1 kts 181°
2026-04-29 01:52 0.46430 101.44588 140 ft 1 kts 182°
2026-04-29 01:53 0.46434 101.44589 140 ft 0 kts 182°
2026-04-29 01:54 0.46406 101.44583 140 ft 5 kts 208°
2026-04-29 01:54 0.46389 101.44557 139 ft 4 kts 248°
2026-04-29 01:54 0.46386 101.44530 139 ft 4 kts 266°
2026-04-29 01:54 0.46385 101.44503 139 ft 5 kts 269°
2026-04-29 01:55 0.46411 101.44463 138 ft 7 kts 336°
2026-04-29 01:55 0.46458 101.44462 139 ft 8 kts
2026-04-29 01:55 0.46520 101.44464 140 ft 8 kts
2026-04-29 01:55 0.46578 101.44466 140 ft 10 kts
2026-04-29 01:56 0.46653 101.44468 142 ft 10 kts
2026-04-29 01:56 0.46735 101.44470 143 ft 19 kts
2026-04-29 01:56 0.46879 101.44474 144 ft 20 kts
2026-04-29 01:56 0.46997 101.44479 143 ft 14 kts 11°
2026-04-29 01:57 0.47080 101.44495 142 ft 9 kts 322°
2026-04-29 01:57 0.47067 101.44480 142 ft 2 kts 204°
2026-04-29 01:57 0.47056 101.44479 142 ft 1 kts 182°
2026-04-29 01:58 0.46868 101.44474 144 ft 66 kts 181°
2026-04-29 01:58 0.46173 101.44454 133 ft 131 kts 181°
2026-04-29 01:58 0.45092 101.44423 280 ft 168 kts 181°
2026-04-29 01:58 0.43915 101.44379 983 ft 171 kts 181°
2026-04-29 01:59 0.42719 101.44341 1682 ft 176 kts 179°
2026-04-29 01:59 0.41500 101.44688 2045 ft 196 kts 140°
2026-04-29 01:59 0.40642 101.45830 2340 ft 220 kts 120°
2026-04-29 01:59 0.39661 101.47108 2743 ft 245 kts 132°
2026-04-29 02:00 0.38415 101.48372 3315 ft 263 kts 136°
2026-04-29 02:00 0.37063 101.49645 4170 ft 270 kts 137°
2026-04-29 02:00 0.35696 101.50916 5091 ft 274 kts 137°
2026-04-29 02:00 0.34298 101.52227 6000 ft 277 kts 137°
2026-04-29 02:01 0.32892 101.53562 6902 ft 281 kts 137°
2026-04-29 02:01 0.31472 101.54920 7780 ft 284 kts 137°
2026-04-29 02:01 0.30040 101.56299 8658 ft 287 kts 137°
2026-04-29 02:01 0.28597 101.57693 9510 ft 290 kts 137°
2026-04-29 02:02 0.27137 101.59106 10293 ft 297 kts 137°
2026-04-29 02:02 0.25594 101.60600 10594 ft 320 kts 137°
2026-04-29 02:02 0.23942 101.62200 10903 ft 340 kts 137°
2026-04-29 02:02 0.22222 101.63870 11556 ft 347 kts 136°
2026-04-29 02:03 0.20484 101.65559 12299 ft 350 kts 136°
2026-04-29 02:03 0.18729 101.67263 13027 ft 353 kts 136°
2026-04-29 02:03 0.16961 101.68979 13736 ft 357 kts 135°
2026-04-29 02:03 0.15176 101.70712 14404 ft 360 kts 135°
2026-04-29 02:04 0.13363 101.72472 15059 ft 365 kts 135°
2026-04-29 02:04 0.11535 101.74247 15689 ft 369 kts 135°
2026-04-29 02:04 0.09687 101.76041 16306 ft 372 kts 135°
2026-04-29 02:04 0.07819 101.77853 16915 ft 376 kts 135°
2026-04-29 02:05 0.05932 101.79682 17516 ft 380 kts 135°
2026-04-29 02:05 0.04028 101.81527 18083 ft 383 kts 135°
2026-04-29 02:05 0.02110 101.83390 18640 ft 387 kts 135°
2026-04-29 02:05 0.00173 101.85272 19195 ft 390 kts 135°
2026-04-29 02:06 -0.01779 101.87166 19730 ft 393 kts 135°
2026-04-29 02:06 -0.03747 101.89072 20263 ft 395 kts 135°
2026-04-29 02:06 -0.05727 101.90991 20780 ft 398 kts 135°
2026-04-29 02:06 -0.07724 101.92928 21276 ft 401 kts 135°
2026-04-29 02:07 -0.09734 101.94875 21769 ft 404 kts 135°
2026-04-29 02:07 -0.11758 101.96838 22243 ft 407 kts 135°
2026-04-29 02:07 -0.13795 101.98813 22712 ft 409 kts 135°
2026-04-29 02:07 -0.15841 102.00800 23165 ft 412 kts 134°
2026-04-29 02:08 -0.17903 102.02802 23601 ft 415 kts 134°
2026-04-29 02:08 -0.19978 102.04816 24037 ft 417 kts 135°
2026-04-29 02:08 -0.22065 102.06837 24453 ft 420 kts 135°
2026-04-29 02:08 -0.24170 102.08875 24850 ft 422 kts 135°
2026-04-29 02:09 -0.26284 102.10923 25240 ft 424 kts 134°
2026-04-29 02:09 -0.28378 102.12955 25612 ft 427 kts 134°
2026-04-29 02:09 -0.30516 102.15027 25986 ft 429 kts 134°
2026-04-29 02:09 -0.32636 102.17081 26337 ft 432 kts 134°
2026-04-29 02:10 -0.34798 102.19176 26670 ft 434 kts 134°
2026-04-29 02:10 -0.36972 102.21284 27018 ft 437 kts 134°
2026-04-29 02:10 -0.39159 102.23408 27344 ft 440 kts 134°
2026-04-29 02:10 -0.41358 102.25544 27666 ft 443 kts 134°
2026-04-29 02:11 -0.43571 102.27692 27982 ft 445 kts 134°
2026-04-29 02:11 -0.45796 102.29853 28291 ft 448 kts 134°
2026-04-29 02:11 -0.48038 102.32029 28587 ft 450 kts 134°
2026-04-29 02:11 -0.50290 102.34209 28871 ft 452 kts 134°
2026-04-29 02:12 -0.52556 102.36404 29145 ft 455 kts 134°
2026-04-29 02:12 -0.54833 102.38614 29411 ft 457 kts 134°
2026-04-29 02:12 -0.57116 102.40832 29672 ft 459 kts 134°
2026-04-29 02:12 -0.59413 102.43064 29933 ft 462 kts 134°
2026-04-29 02:13 -0.61721 102.45301 30189 ft 464 kts 134°
2026-04-29 02:13 -0.64044 102.47553 30439 ft 466 kts 134°
2026-04-29 02:13 -0.66372 102.49808 30741 ft 466 kts 134°
2026-04-29 02:13 -0.68696 102.52060 31124 ft 465 kts 134°
2026-04-29 02:14 -0.71009 102.54307 31503 ft 463 kts 134°
2026-04-29 02:14 -0.73319 102.56550 31865 ft 462 kts 134°
2026-04-29 02:14 -0.75623 102.58786 32226 ft 461 kts 134°
2026-04-29 02:14 -0.77923 102.61014 32578 ft 460 kts 134°
2026-04-29 02:15 -0.80219 102.63240 32925 ft 459 kts 134°
2026-04-29 02:15 -0.82507 102.65458 33275 ft 458 kts 134°
2026-04-29 02:15 -0.84790 102.67670 33621 ft 457 kts 134°
2026-04-29 02:15 -0.87070 102.69881 33966 ft 456 kts 133°
2026-04-29 02:16 -0.89338 102.72085 34310 ft 455 kts 133°
2026-04-29 02:16 -0.91605 102.74289 34621 ft 454 kts 134°
2026-04-29 02:16 -0.93872 102.76491 34915 ft 454 kts 134°
2026-04-29 02:16 -0.96140 102.78686 35195 ft 454 kts 134°
2026-04-29 02:17 -0.98402 102.80877 35461 ft 453 kts 134°
2026-04-29 02:17 -1.00667 102.83073 35727 ft 453 kts 134°
2026-04-29 02:17 -1.02925 102.85263 35974 ft 453 kts 134°
2026-04-29 02:17 -1.05185 102.87455 36207 ft 453 kts 134°
2026-04-29 02:18 -1.07448 102.89650 36425 ft 453 kts 134°
2026-04-29 02:18 -1.09707 102.91845 36626 ft 453 kts 134°
2026-04-29 02:18 -1.11966 102.94043 36799 ft 454 kts 134°
2026-04-29 02:18 -1.14228 102.96249 36883 ft 454 kts 134°
2026-04-29 02:19 -1.18721 103.00625 36894 ft 454 kts 134°
2026-04-29 02:19 -1.23237 103.05011 36892 ft 452 kts 134°
2026-04-29 02:20 -1.27749 103.09396 36888 ft 452 kts 134°
2026-04-29 02:20 -1.32260 103.13779 36893 ft 452 kts 134°
2026-04-29 02:21 -1.36763 103.18166 36896 ft 452 kts 134°
2026-04-29 02:21 -1.41270 103.22553 36896 ft 452 kts 134°
2026-04-29 02:22 -1.45777 103.26938 36894 ft 452 kts 134°
2026-04-29 02:22 -1.50286 103.31316 36893 ft 452 kts 134°
2026-04-29 02:23 -1.54796 103.35704 36898 ft 452 kts 134°
2026-04-29 02:23 -1.59300 103.40090 36897 ft 452 kts 134°
2026-04-29 02:24 -1.63804 103.44471 36898 ft 452 kts 134°
2026-04-29 02:25 -1.70558 103.51040 36931 ft 451 kts 134°
2026-04-29 02:25 -1.75035 103.55399 36916 ft 456 kts 134°
2026-04-29 02:26 -1.79620 103.59861 36928 ft 464 kts 134°
2026-04-29 02:26 -1.83503 103.63636 36925 ft 466 kts 134°
2026-04-29 02:27 -1.88148 103.68155 36922 ft 466 kts 134°
2026-04-29 02:27 -1.92790 103.72677 36922 ft 466 kts 134°
2026-04-29 02:28 -1.97397 103.77167 36927 ft 466 kts 134°
2026-04-29 02:28 -2.02040 103.81691 36921 ft 466 kts 134°
2026-04-29 02:29 -2.06684 103.86215 36928 ft 466 kts 134°
2026-04-29 02:29 -2.11328 103.90734 36916 ft 466 kts 135°
2026-04-29 02:30 -2.15983 103.95258 36905 ft 467 kts 135°
2026-04-29 02:30 -2.20639 103.99786 36912 ft 467 kts 135°
2026-04-29 02:31 -2.25298 104.04324 36912 ft 467 kts 135°
2026-04-29 02:31 -2.29957 104.08863 36921 ft 468 kts 135°
2026-04-29 02:32 -2.34614 104.13407 36929 ft 468 kts 134°
2026-04-29 02:32 -2.39277 104.17952 36928 ft 468 kts 135°
2026-04-29 02:33 -2.43947 104.22495 36928 ft 468 kts 135°
2026-04-29 02:33 -2.48609 104.27045 36931 ft 468 kts 135°
2026-04-29 02:34 -2.53278 104.31594 36932 ft 468 kts 135°
2026-04-29 02:34 -2.57763 104.35965 36934 ft 469 kts 134°
2026-04-29 02:35 -2.62403 104.40489 36936 ft 469 kts 134°
2026-04-29 02:35 -2.67105 104.45074 36937 ft 469 kts 134°
2026-04-29 02:36 -2.71747 104.49601 36937 ft 469 kts 134°
2026-04-29 02:36 -2.76454 104.54187 36938 ft 469 kts 134°
2026-04-29 02:37 -2.81126 104.58739 36940 ft 469 kts 134°
2026-04-29 02:37 -2.85805 104.63305 36941 ft 470 kts 134°
2026-04-29 02:38 -2.90215 104.68102 36940 ft 468 kts 129°
2026-04-29 02:38 -2.94418 104.73083 36940 ft 469 kts 129°
2026-04-29 02:39 -2.98619 104.78066 36940 ft 468 kts 129°
2026-04-29 02:39 -3.02796 104.83014 36941 ft 468 kts 129°
2026-04-29 02:40 -3.07002 104.87992 36940 ft 468 kts 129°
2026-04-29 02:40 -3.11200 104.92967 36938 ft 468 kts 129°
2026-04-29 02:41 -3.15397 104.97944 36937 ft 468 kts 129°
2026-04-29 02:41 -3.19596 105.02915 36936 ft 468 kts 129°
2026-04-29 02:42 -3.23793 105.07889 36935 ft 467 kts 129°
2026-04-29 02:42 -3.27980 105.12862 36932 ft 467 kts 129°
2026-04-29 02:43 -3.32168 105.17831 36931 ft 467 kts 129°
2026-04-29 02:43 -3.36359 105.22797 36930 ft 467 kts 129°
2026-04-29 02:44 -3.40552 105.27767 36930 ft 467 kts 129°
2026-04-29 02:44 -3.44740 105.32737 36922 ft 467 kts 128°
2026-04-29 02:45 -3.48937 105.37721 36913 ft 468 kts 128°
2026-04-29 02:45 -3.53133 105.42714 36929 ft 469 kts 128°
2026-04-29 02:46 -3.57342 105.47714 36933 ft 470 kts 128°
2026-04-29 02:46 -3.61561 105.52714 36935 ft 470 kts 128°
2026-04-29 02:47 -3.65774 105.57693 36935 ft 470 kts 128°
2026-04-29 02:47 -3.70009 105.62709 36937 ft 470 kts 128°
2026-04-29 02:48 -3.74232 105.67709 36939 ft 470 kts 128°
2026-04-29 02:48 -3.78453 105.72717 36940 ft 470 kts 128°
2026-04-29 02:49 -3.82477 105.77497 36940 ft 470 kts 128°
2026-04-29 02:49 -3.86694 105.82496 36939 ft 470 kts 128°
2026-04-29 02:50 -3.90916 105.87494 36937 ft 470 kts 128°
2026-04-29 02:50 -3.95129 105.92497 36936 ft 470 kts 128°
2026-04-29 02:51 -3.99341 105.97494 36935 ft 469 kts 128°
2026-04-29 02:51 -4.03533 106.02500 36932 ft 469 kts 126°
2026-04-29 02:52 -4.06930 106.08040 36930 ft 466 kts 118°
2026-04-29 02:52 -4.10162 106.13624 36928 ft 466 kts 118°
2026-04-29 02:53 -4.13417 106.19243 36928 ft 467 kts 118°
2026-04-29 02:53 -4.16671 106.24871 36930 ft 467 kts 118°
2026-04-29 02:54 -4.19922 106.30502 36931 ft 467 kts 118°
2026-04-29 02:54 -4.23180 106.36139 36934 ft 467 kts 118°
2026-04-29 02:55 -4.26431 106.41774 36936 ft 468 kts 118°
2026-04-29 02:55 -4.29690 106.47416 36939 ft 468 kts 118°
2026-04-29 02:56 -4.32945 106.53062 36941 ft 468 kts 118°
2026-04-29 02:56 -4.36198 106.58713 36942 ft 468 kts 118°
2026-04-29 02:57 -4.39460 106.64360 36943 ft 468 kts 118°
2026-04-29 02:57 -4.42720 106.70007 36943 ft 468 kts 118°
2026-04-29 02:58 -4.45980 106.75652 36943 ft 468 kts 118°
2026-04-29 02:58 -4.49240 106.81302 36942 ft 468 kts 118°
2026-04-29 02:59 -4.52497 106.86947 36941 ft 468 kts 118°
2026-04-29 02:59 -4.55744 106.92592 36930 ft 467 kts 118°
2026-04-29 03:00 -4.58985 106.98234 36917 ft 467 kts 118°
2026-04-29 03:00 -4.62806 107.03480 36909 ft 470 kts 136°
2026-04-29 03:00 -4.65403 107.05480 36910 ft 472 kts 147°
2026-04-29 03:01 -4.68353 107.06932 36906 ft 475 kts 159°
2026-04-29 03:01 -4.74805 107.08470 36904 ft 478 kts 166°
2026-04-29 03:02 -4.81196 107.09814 36645 ft 466 kts 166°
2026-04-29 03:02 -4.84357 107.10483 36396 ft 463 kts 166°
2026-04-29 03:02 -4.87505 107.11149 36147 ft 462 kts 166°
2026-04-29 03:02 -4.90653 107.11815 35898 ft 462 kts 166°
2026-04-29 03:03 -4.93802 107.12481 35648 ft 463 kts 166°
2026-04-29 03:03 -4.96957 107.13146 35291 ft 464 kts 166°
2026-04-29 03:03 -5.00137 107.13814 34288 ft 470 kts 166°
2026-04-29 03:03 -5.03348 107.14485 33375 ft 473 kts 166°
2026-04-29 03:04 -5.06599 107.15165 32260 ft 480 kts 166°
2026-04-29 03:04 -5.09887 107.15856 31158 ft 485 kts 167°
2026-04-29 03:04 -5.13196 107.16552 30345 ft 483 kts 167°
2026-04-29 03:04 -5.16461 107.17239 29673 ft 477 kts 167°
2026-04-29 03:05 -5.19689 107.17919 28985 ft 471 kts 168°
2026-04-29 03:05 -5.22873 107.18591 28299 ft 465 kts 167°
2026-04-29 03:05 -5.26030 107.19257 27609 ft 460 kts 168°
2026-04-29 03:05 -5.29133 107.19909 26907 ft 454 kts 168°
2026-04-29 03:06 -5.32207 107.20566 26256 ft 448 kts 166°
2026-04-29 03:06 -5.35137 107.21557 25609 ft 442 kts 156°
2026-04-29 03:06 -5.37806 107.23039 24965 ft 437 kts 146°
2026-04-29 03:06 -5.40262 107.24809 24341 ft 431 kts 144°
2026-04-29 03:07 -5.42682 107.26557 23734 ft 426 kts 145°
2026-04-29 03:07 -5.45072 107.28275 23158 ft 420 kts 145°
2026-04-29 03:07 -5.47432 107.29968 22604 ft 414 kts 144°
2026-04-29 03:07 -5.49758 107.31635 22083 ft 408 kts 144°
2026-04-29 03:08 -5.52052 107.33277 21571 ft 402 kts 144°
2026-04-29 03:08 -5.54317 107.34897 21082 ft 397 kts 144°
2026-04-29 03:08 -5.56551 107.36499 20581 ft 392 kts 144°
2026-04-29 03:08 -5.58756 107.38084 20069 ft 388 kts 144°
2026-04-29 03:09 -5.60934 107.39654 19562 ft 384 kts 144°
2026-04-29 03:09 -5.63091 107.41210 19046 ft 381 kts 144°
2026-04-29 03:09 -5.65234 107.42755 18526 ft 378 kts 144°
2026-04-29 03:09 -5.67363 107.44287 17999 ft 375 kts 144°
2026-04-29 03:10 -5.69477 107.45809 17477 ft 373 kts 144°
2026-04-29 03:10 -5.71581 107.47322 16943 ft 371 kts 143°
2026-04-29 03:10 -5.73679 107.48827 16427 ft 369 kts 144°
2026-04-29 03:10 -5.75761 107.50320 15901 ft 368 kts 144°
2026-04-29 03:11 -5.77837 107.51809 15386 ft 366 kts 143°
2026-04-29 03:11 -5.79900 107.53291 14859 ft 364 kts 143°
2026-04-29 03:11 -5.81926 107.54745 14366 ft 362 kts 143°
2026-04-29 03:11 -5.83965 107.56212 13843 ft 360 kts 143°
2026-04-29 03:12 -5.85995 107.57671 13321 ft 358 kts 143°
2026-04-29 03:12 -5.88007 107.59118 12805 ft 355 kts 143°
2026-04-29 03:12 -5.90008 107.60558 12273 ft 352 kts 143°
2026-04-29 03:12 -5.92030 107.61920 11741 ft 349 kts 152°
2026-04-29 03:13 -5.94353 107.62559 11198 ft 349 kts 175°
2026-04-29 03:13 -5.96740 107.62175 10721 ft 350 kts 201°
2026-04-29 03:13 -5.98733 107.60841 10471 ft 345 kts 224°
2026-04-29 03:13 -5.99722 107.59568 10301 ft 340 kts 234°
2026-04-29 03:14 -6.01007 107.57611 10051 ft 331 kts 234°
2026-04-29 03:14 -6.02254 107.55704 9864 ft 321 kts 234°
2026-04-29 03:14 -6.03454 107.53865 9742 ft 309 kts 234°
2026-04-29 03:14 -6.04620 107.52081 9607 ft 303 kts 235°
2026-04-29 03:15 -6.05771 107.50318 9486 ft 302 kts 235°
2026-04-29 03:15 -6.06922 107.48559 9358 ft 301 kts 235°
2026-04-29 03:15 -6.08068 107.46811 9229 ft 300 kts 235°
2026-04-29 03:15 -6.09214 107.45060 9115 ft 300 kts 235°
2026-04-29 03:16 -6.10340 107.43336 8992 ft 299 kts 235°
2026-04-29 03:16 -6.11495 107.41568 8925 ft 299 kts 235°
2026-04-29 03:16 -6.12618 107.39846 8815 ft 298 kts 235°
2026-04-29 03:16 -6.13750 107.38107 8671 ft 297 kts 235°
2026-04-29 03:17 -6.14515 107.36932 8560 ft 297 kts 235°
2026-04-29 03:17 -6.15251 107.35791 8471 ft 297 kts 236°
2026-04-29 03:17 -6.16375 107.34056 8311 ft 296 kts 236°
2026-04-29 03:18 -6.17501 107.32328 8163 ft 295 kts 235°
2026-04-29 03:18 -6.18627 107.30608 8014 ft 294 kts 235°
2026-04-29 03:18 -6.19740 107.28909 7855 ft 290 kts 235°
2026-04-29 03:18 -6.20834 107.27213 7715 ft 288 kts 236°
2026-04-29 03:19 -6.21912 107.25515 7564 ft 288 kts 236°
2026-04-29 03:19 -6.22980 107.23816 7415 ft 287 kts 236°
2026-04-29 03:19 -6.24045 107.22122 7266 ft 286 kts 236°
2026-04-29 03:19 -6.25111 107.20429 7116 ft 286 kts 236°
2026-04-29 03:20 -6.26171 107.18745 6973 ft 285 kts 237°
2026-04-29 03:20 -6.27232 107.17064 6826 ft 285 kts 236°
2026-04-29 03:20 -6.28292 107.15386 6683 ft 284 kts 236°
2026-04-29 03:20 -6.29345 107.13713 6541 ft 283 kts 236°
2026-04-29 03:21 -6.30391 107.12039 6393 ft 282 kts 237°
2026-04-29 03:21 -6.31421 107.10363 6247 ft 282 kts 237°
2026-04-29 03:21 -6.32448 107.08682 6088 ft 281 kts 237°
2026-04-29 03:21 -6.33467 107.07011 5950 ft 281 kts 237°
2026-04-29 03:22 -6.34488 107.05345 5814 ft 280 kts 237°
2026-04-29 03:22 -6.35507 107.03682 5660 ft 279 kts 237°
2026-04-29 03:22 -6.36525 107.02022 5522 ft 279 kts 237°
2026-04-29 03:22 -6.37539 107.00373 5381 ft 278 kts 238°
2026-04-29 03:23 -6.38539 106.98745 5243 ft 267 kts 238°
2026-04-29 03:23 -6.39497 106.97184 5026 ft 258 kts 238°
2026-04-29 03:23 -6.40321 106.95622 4987 ft 250 kts 249°
2026-04-29 03:23 -6.40748 106.93910 4924 ft 254 kts 259°
2026-04-29 03:24 -6.41028 106.92361 4837 ft 254 kts 259°
2026-04-29 03:24 -6.41313 106.90816 4738 ft 253 kts 259°
2026-04-29 03:24 -6.41636 106.89096 4630 ft 253 kts 259°
2026-04-29 03:24 -6.41966 106.87335 4526 ft 253 kts 259°
2026-04-29 03:25 -6.42289 106.85600 4423 ft 252 kts 259°
2026-04-29 03:25 -6.42607 106.83893 4319 ft 248 kts 259°
2026-04-29 03:25 -6.42919 106.82230 4218 ft 236 kts 259°
2026-04-29 03:25 -6.43179 106.80638 4117 ft 227 kts 269°
2026-04-29 03:26 -6.42833 106.79117 4027 ft 225 kts 300°
2026-04-29 03:26 -6.41773 106.77983 3773 ft 225 kts 331°
2026-04-29 03:26 -6.40359 106.77329 3485 ft 223 kts 337°
2026-04-29 03:26 -6.38946 106.76698 3213 ft 222 kts 336°
2026-04-29 03:27 -6.37537 106.76062 2959 ft 222 kts 336°
2026-04-29 03:27 -6.36127 106.75424 2725 ft 220 kts 336°
2026-04-29 03:27 -6.34757 106.74803 2640 ft 212 kts 336°
2026-04-29 03:27 -6.33375 106.74482 2549 ft 201 kts
2026-04-29 03:28 -6.32190 106.75123 2472 ft 198 kts 53°
2026-04-29 03:28 -6.31670 106.76378 2264 ft 196 kts 76°
2026-04-29 03:28 -6.31294 106.77700 2066 ft 196 kts 75°
2026-04-29 03:28 -6.30920 106.78977 1877 ft 184 kts 75°
2026-04-29 03:29 -6.30571 106.80152 1695 ft 167 kts 75°
2026-04-29 03:29 -6.30251 106.81220 1523 ft 151 kts 75°
2026-04-29 03:29 -6.29824 106.82166 1369 ft 146 kts 68°
2026-04-29 03:29 -6.29407 106.83078 1169 ft 144 kts 67°
2026-04-29 03:30 -6.28989 106.83992 993 ft 144 kts 66°
2026-04-29 03:30 -6.28559 106.84905 783 ft 145 kts 66°
2026-04-29 03:30 -6.28125 106.85806 586 ft 141 kts 68°
2026-04-29 03:30 -6.27727 106.86716 508 ft 142 kts 68°
2026-04-29 03:31 -6.26903 106.88559 588 ft 153 kts 67°
2026-04-29 03:31 -6.26460 106.89549 1418 ft 163 kts 69°
2026-04-29 03:31 -6.25981 106.90648 1928 ft 183 kts 68°
2026-04-29 03:32 -6.25447 106.91891 2311 ft 205 kts 68°
2026-04-29 03:32 -6.24837 106.93245 2955 ft 215 kts 66°
2026-04-29 03:32 -6.24205 106.94615 3820 ft 218 kts 65°
2026-04-29 03:32 -6.23556 106.96005 4680 ft 221 kts 65°
2026-04-29 03:33 -6.22896 106.97414 5530 ft 225 kts 65°
2026-04-29 03:33 -6.22222 106.98857 5916 ft 229 kts 65°
2026-04-29 03:33 -6.21549 107.00303 6015 ft 228 kts 65°
2026-04-29 03:33 -6.20882 107.01741 6031 ft 227 kts 66°
2026-04-29 03:34 -6.20551 107.03264 6031 ft 224 kts 97°
2026-04-29 03:34 -6.21124 107.04694 6029 ft 224 kts 130°
2026-04-29 03:34 -6.22387 107.05563 6009 ft 224 kts 164°
2026-04-29 03:34 -6.23928 107.05590 6005 ft 224 kts 197°
2026-04-29 03:35 -6.25247 107.04767 5872 ft 229 kts 230°
2026-04-29 03:35 -6.25906 107.03345 5766 ft 226 kts 255°
2026-04-29 03:35 -6.26540 107.01889 5717 ft 237 kts 230°
2026-04-29 03:35 -6.27832 107.00844 5662 ft 242 kts 205°
2026-04-29 03:36 -6.29403 107.00225 5608 ft 243 kts 200°
2026-04-29 03:36 -6.30977 106.99602 5555 ft 244 kts 201°
2026-04-29 03:36 -6.32546 106.98956 5500 ft 243 kts 202°
2026-04-29 03:36 -6.34127 106.98297 5447 ft 251 kts 202°
2026-04-29 03:37 -6.35749 106.97618 5390 ft 254 kts 202°
2026-04-29 03:37 -6.37380 106.96936 5335 ft 254 kts 202°
2026-04-29 03:37 -6.38990 106.96208 5273 ft 254 kts 212°
2026-04-29 03:37 -6.40231 106.95012 5216 ft 254 kts 237°
2026-04-29 03:38 -6.40866 106.93362 5162 ft 255 kts 259°
2026-04-29 03:38 -6.41186 106.91609 5106 ft 255 kts 259°
2026-04-29 03:38 -6.41507 106.89856 5043 ft 255 kts 259°
2026-04-29 03:38 -6.41828 106.88106 4993 ft 254 kts 259°
2026-04-29 03:39 -6.42151 106.86359 4936 ft 254 kts 259°
2026-04-29 03:39 -6.42474 106.84613 4881 ft 254 kts 259°
2026-04-29 03:39 -6.42798 106.82865 4835 ft 254 kts 259°
2026-04-29 03:39 -6.43098 106.81117 4769 ft 254 kts 265°
2026-04-29 03:40 -6.42820 106.79394 4705 ft 253 kts 295°
2026-04-29 03:40 -6.41750 106.78050 4646 ft 241 kts 324°
2026-04-29 03:40 -6.40310 106.77305 4589 ft 228 kts 336°
2026-04-29 03:40 -6.38871 106.76660 4371 ft 225 kts 336°
2026-04-29 03:41 -6.37446 106.76021 4084 ft 225 kts 336°
2026-04-29 03:41 -6.36019 106.75378 3765 ft 226 kts 336°
2026-04-29 03:41 -6.34582 106.74733 3427 ft 226 kts 338°
2026-04-29 03:41 -6.33055 106.74522 3095 ft 224 kts 15°
2026-04-29 03:42 -6.31800 106.75342 2772 ft 221 kts 56°
2026-04-29 03:42 -6.31145 106.76755 2470 ft 222 kts 72°
2026-04-29 03:42 -6.30756 106.78244 2147 ft 217 kts 77°
2026-04-29 03:42 -6.30430 106.79688 1865 ft 204 kts 78°
2026-04-29 03:43 -6.30117 106.81017 1580 ft 187 kts 77°
2026-04-29 03:43 -6.29700 106.82191 1308 ft 171 kts 71°
2026-04-29 03:43 -6.29262 106.83232 1087 ft 158 kts 71°
2026-04-29 03:43 -6.28830 106.84220 879 ft 148 kts 69°
2026-04-29 03:44 -6.28453 106.85151 669 ft 145 kts 72°
2026-04-29 03:44 -6.28047 106.86080 594 ft 145 kts 66°
2026-04-29 03:44 -6.27619 106.86999 377 ft 146 kts 68°
2026-04-29 03:44 -6.27210 106.87929 145 ft 144 kts 67°
2026-04-29 03:45 -6.26807 106.88798 98 ft 127 kts 65°
2026-04-29 03:45 -6.26529 106.89401 97 ft 53 kts 65°
2026-04-29 03:45 -6.26384 106.89714 95 ft 48 kts 65°
2026-04-29 03:45 -6.26260 106.89977 97 ft 31 kts 66°
2026-04-29 03:46 -6.26174 106.90153 97 ft 19 kts 55°
2026-04-29 03:46 -6.26130 106.90221 97 ft 4 kts 139°
2026-04-29 03:46 -6.26174 106.90169 97 ft 16 kts 244°
2026-04-29 03:46 -6.26222 106.90058 97 ft 18 kts 244°
2026-04-29 03:47 -6.26278 106.89941 97 ft 20 kts 245°
2026-04-29 03:47 -6.26341 106.89805 96 ft 24 kts 244°
2026-04-29 03:47 -6.26427 106.89626 98 ft 31 kts 245°
2026-04-29 03:47 -6.26518 106.89425 95 ft 26 kts 245°
2026-04-29 03:48 -6.26580 106.89281 97 ft 19 kts 258°
2026-04-29 03:48 -6.26552 106.89169 97 ft 14 kts 290°
2026-04-29 03:48 -6.26518 106.89079 96 ft 13 kts 290°
2026-04-29 03:48 -6.26497 106.89018 97 ft 8 kts 282°
2026-04-29 03:49 -6.26507 106.88966 95 ft 7 kts 246°
2026-04-29 03:49 -6.26528 106.88922 95 ft 7 kts 245°
2026-04-29 03:49 -6.26546 106.88883 96 ft 6 kts 245°
2026-04-29 03:49 -6.26566 106.88840 95 ft 9 kts 245°
2026-04-29 03:50 -6.26590 106.88787 96 ft 8 kts 245°
2026-04-29 03:50 -6.26612 106.88740 97 ft 7 kts 245°
2026-04-29 03:50 -6.26632 106.88697 95 ft 6 kts 245°
2026-04-29 03:50 -6.26639 106.88661 96 ft 5 kts 285°
2026-04-29 03:51 -6.26617 106.88646 95 ft 4 kts 336°
2026-04-29 03:51 -6.26600 106.88638 95 ft 1 kts 335°
2026-04-29 03:51 -6.26597 106.88637 96 ft 0 kts 335°